Time,TemperatureF,DewpointF,PressureIn,WindDirection,WindDirectionDegrees,WindSpeedMPH,WindSpeedGustMPH,Humidity,HourlyPrecipIn,Conditions,Clouds,dailyrainin,SoftwareType,DateUTC
2013-04-16 00:06:00,71.9,71.0,30.02,SSE,165,0.0,-999.0,96,-99.99,,,0.00,weatherlink.com 1.10,2013-04-16 04:06:00,
2013-04-16 00:21:00,71.9,71.0,30.02,SSE,165,0.0,-999.0,97,-99.99,,,0.00,weatherlink.com 1.10,2013-04-16 04:21:00,
2013-04-16 00:36:00,72.0,71.0,30.01,SSE,165,0.0,-999.0,97,-99.99,,,0.00,weatherlink.com 1.10,2013-04-16 04:36:00,
2013-04-16 00:51:00,72.2,71.0,30.01,SSE,165,0.0,-999.0,97,-99.99,,,0.00,weatherlink.com 1.10,2013-04-16 04:51:00,
2013-04-16 01:06:00,72.3,71.0,30.01,SSE,165,0.0,-999.0,97,-99.99,,,0.00,weatherlink.com 1.10,2013-04-16 05:06:00,
2013-04-16 01:21:00,71.9,71.0,30.00,SSE,165,0.0,-999.0,97,-99.99,,,0.00,weatherlink.com 1.10,2013-04-16 05:21:00,
2013-04-16 01:36:00,72.0,71.0,30.00,SSE,165,0.0,-999.0,97,-99.99,,,0.00,weatherlink.com 1.10,2013-04-16 05:36:00,
2013-04-16 01:51:00,72.2,71.0,30.00,SSE,165,0.0,-999.0,97,-99.99,,,0.00,weatherlink.com 1.10,2013-04-16 05:51:00,
2013-04-16 02:06:00,71.8,71.0,30.00,SSE,165,0.0,-999.0,97,-99.99,,,0.00,weatherlink.com 1.10,2013-04-16 06:06:00,
2013-04-16 02:21:00,71.6,71.0,30.00,SSE,165,0.0,-999.0,97,-99.99,,,0.00,weatherlink.com 1.10,2013-04-16 06:21:00,
2013-04-16 02:36:00,72.4,72.0,29.99,SSE,165,0.0,-999.0,98,-99.99,,,0.00,weatherlink.com 1.10,2013-04-16 06:36:00,
2013-04-16 02:51:00,73.0,72.0,29.99,SSE,165,0.0,-999.0,98,-99.99,,,0.00,weatherlink.com 1.10,2013-04-16 06:51:00,
2013-04-16 03:06:00,73.3,73.0,29.99,SSE,161,0.0,-999.0,98,-99.99,,,0.00,weatherlink.com 1.10,2013-04-16 07:06:00,
2013-04-16 03:21:00,73.5,73.0,29.99,SSE,148,0.0,-999.0,98,-99.99,,,0.00,weatherlink.com 1.10,2013-04-16 07:21:00,
2013-04-16 03:36:00,73.7,73.0,29.99,NE,41,4.0,-999.0,98,-99.99,,,0.00,weatherlink.com 1.10,2013-04-16 07:36:00,
2013-04-16 03:51:00,73.8,73.0,29.99,NE,51,0.0,-999.0,98,-99.99,,,0.00,weatherlink.com 1.10,2013-04-16 07:51:00,
2013-04-16 04:06:00,74.0,73.0,29.99,NE,55,0.0,-999.0,98,-99.99,,,0.00,weatherlink.com 1.10,2013-04-16 08:06:00,
2013-04-16 04:21:00,74.3,74.0,29.99,ENE,59,0.0,-999.0,98,-99.99,,,0.00,weatherlink.com 1.10,2013-04-16 08:21:00,
2013-04-16 04:36:00,74.6,74.0,29.99,East,80,0.0,-999.0,98,-99.99,,,0.00,weatherlink.com 1.10,2013-04-16 08:36:00,
2013-04-16 04:51:00,74.8,74.0,29.99,East,80,0.0,-999.0,97,-99.99,,,0.00,weatherlink.com 1.10,2013-04-16 08:51:00,
2013-04-16 05:06:00,74.8,74.0,29.99,East,81,2.0,-999.0,97,-99.99,,,0.00,weatherlink.com 1.10,2013-04-16 09:06:00,
2013-04-16 05:21:00,74.7,74.0,29.99,East,81,0.0,-999.0,97,-99.99,,,0.00,weatherlink.com 1.10,2013-04-16 09:21:00,
2013-04-16 05:36:00,74.8,74.0,29.99,East,81,0.0,-999.0,97,-99.99,,,0.00,weatherlink.com 1.10,2013-04-16 09:36:00,
2013-04-16 05:51:00,74.8,74.0,30.00,East,81,0.0,-999.0,97,-99.99,,,0.00,weatherlink.com 1.10,2013-04-16 09:51:00,
2013-04-16 06:06:00,74.9,74.0,30.00,East,80,2.0,-999.0,97,-99.99,,,0.00,weatherlink.com 1.10,2013-04-16 10:06:00,
2013-04-16 06:21:00,74.7,74.0,30.00,ENE,71,1.0,-999.0,97,-99.99,,,0.00,weatherlink.com 1.10,2013-04-16 10:21:00,
2013-04-16 06:36:00,74.6,74.0,30.01,East,84,0.0,-999.0,97,-99.99,,,0.00,weatherlink.com 1.10,2013-04-16 10:36:00,
2013-04-16 06:51:00,74.8,74.0,30.02,ENE,78,9.0,-999.0,97,-99.99,,,0.00,weatherlink.com 1.10,2013-04-16 10:51:00,
2013-04-16 07:06:00,74.8,74.0,30.02,East,86,4.0,-999.0,97,-99.99,,,0.00,weatherlink.com 1.10,2013-04-16 11:06:00,
2013-04-16 07:21:00,74.9,74.0,30.02,East,83,0.0,-999.0,97,-99.99,,,0.00,weatherlink.com 1.10,2013-04-16 11:21:00,
2013-04-16 07:36:00,75.2,74.0,30.03,East,82,6.0,-999.0,96,-99.99,,,0.00,weatherlink.com 1.10,2013-04-16 11:36:00,
2013-04-16 07:51:00,75.7,74.0,30.04,ENE,67,0.0,-999.0,95,-99.99,,,0.00,weatherlink.com 1.10,2013-04-16 11:51:00,
2013-04-16 08:06:00,76.4,75.0,30.05,East,90,4.0,-999.0,95,-99.99,,,0.00,weatherlink.com 1.10,2013-04-16 12:06:00,
2013-04-16 08:21:00,77.1,75.0,30.05,ENE,77,3.0,-999.0,92,-99.99,,,0.00,weatherlink.com 1.10,2013-04-16 12:21:00,
2013-04-16 08:37:00,77.8,75.0,30.06,ENE,64,0.0,-999.0,91,-99.99,,,0.00,weatherlink.com 1.10,2013-04-16 12:37:00,
2013-04-16 08:52:00,78.0,75.0,30.06,NE,51,4.0,-999.0,90,-99.99,,,0.00,weatherlink.com 1.10,2013-04-16 12:52:00,
2013-04-16 09:07:00,78.7,76.0,30.06,NE,43,7.0,-999.0,90,-99.99,,,0.00,weatherlink.com 1.10,2013-04-16 13:07:00,
2013-04-16 09:22:00,79.2,75.0,30.06,East,81,3.0,-999.0,88,-99.99,,,0.00,weatherlink.com 1.10,2013-04-16 13:22:00,
2013-04-16 09:37:00,79.2,75.0,30.06,ENE,63,10.0,-999.0,87,-99.99,,,0.00,weatherlink.com 1.10,2013-04-16 13:37:00,
2013-04-16 09:52:00,80.0,76.0,30.07,ENE,74,2.0,-999.0,87,-99.99,,,0.00,weatherlink.com 1.10,2013-04-16 13:52:00,
2013-04-16 10:08:00,80.3,76.0,30.07,NE,43,4.0,-999.0,86,-99.99,,,0.00,weatherlink.com 1.10,2013-04-16 14:08:00,
2013-04-16 10:22:00,81.0,75.0,30.08,NE,49,12.0,-999.0,83,-99.99,,,0.00,weatherlink.com 1.10,2013-04-16 14:22:00,
2013-04-16 10:37:00,81.3,76.0,30.08,NE,53,10.0,-999.0,84,-99.99,,,0.00,weatherlink.com 1.10,2013-04-16 14:37:00,
2013-04-16 10:52:00,81.1,75.0,30.08,East,89,3.0,-999.0,82,-99.99,,,0.00,weatherlink.com 1.10,2013-04-16 14:52:00,
2013-04-16 11:07:00,81.5,76.0,30.08,NE,41,6.0,-999.0,83,-99.99,,,0.00,weatherlink.com 1.10,2013-04-16 15:07:00,
2013-04-16 11:22:00,81.1,75.0,30.09,East,89,10.0,-999.0,82,-99.99,,,0.00,weatherlink.com 1.10,2013-04-16 15:22:00,
2013-04-16 11:37:00,81.0,75.0,30.08,ENE,69,6.0,-999.0,83,-99.99,,,0.00,weatherlink.com 1.10,2013-04-16 15:37:00,
2013-04-16 11:52:00,81.5,76.0,30.09,ENE,74,6.0,-999.0,82,-99.99,,,0.00,weatherlink.com 1.10,2013-04-16 15:52:00,
2013-04-16 12:07:00,80.9,75.0,30.09,ENE,65,0.0,-999.0,81,-99.99,,,0.00,weatherlink.com 1.10,2013-04-16 16:07:00,
2013-04-16 12:22:00,81.5,75.0,30.09,ENE,57,1.0,-999.0,80,-99.99,,,0.00,weatherlink.com 1.10,2013-04-16 16:22:00,
2013-04-16 12:37:00,81.3,75.0,30.09,ENE,57,5.0,-999.0,81,-99.99,,,0.00,weatherlink.com 1.10,2013-04-16 16:37:00,
2013-04-16 12:52:00,82.3,76.0,30.09,ENE,67,0.0,-999.0,80,-99.99,,,0.00,weatherlink.com 1.10,2013-04-16 16:52:00,
2013-04-16 13:07:00,81.5,75.0,30.09,NE,55,0.0,-999.0,80,-99.99,,,0.00,weatherlink.com 1.10,2013-04-16 17:07:00,
2013-04-16 13:22:00,81.3,75.0,30.08,NE,55,10.0,-999.0,81,-99.99,,,0.00,weatherlink.com 1.10,2013-04-16 17:22:00,
2013-04-16 13:37:00,81.7,75.0,30.08,NE,53,4.0,-999.0,80,-99.99,,,0.00,weatherlink.com 1.10,2013-04-16 17:37:00,
2013-04-16 13:52:00,82.0,74.0,30.08,ENE,67,3.0,-999.0,77,-99.99,,,0.00,weatherlink.com 1.10,2013-04-16 17:52:00,
2013-04-16 14:07:00,82.5,75.0,30.08,NNE,32,9.0,-999.0,78,-99.99,,,0.00,weatherlink.com 1.10,2013-04-16 18:07:00,
2013-04-16 14:22:00,82.6,74.0,30.07,ENE,77,0.0,-999.0,75,-99.99,,,0.00,weatherlink.com 1.10,2013-04-16 18:22:00,
2013-04-16 14:37:00,82.0,73.0,30.07,NE,53,0.0,-999.0,75,-99.99,,,0.00,weatherlink.com 1.10,2013-04-16 18:37:00,
2013-04-16 14:52:00,81.6,74.0,30.06,ENE,57,6.0,-999.0,77,-99.99,,,0.00,weatherlink.com 1.10,2013-04-16 18:52:00,
2013-04-16 15:07:00,81.5,74.0,30.06,ENE,74,0.0,-999.0,78,-99.99,,,0.00,weatherlink.com 1.10,2013-04-16 19:07:00,
2013-04-16 15:22:00,81.4,74.0,30.05,NE,48,4.0,-999.0,77,-99.99,,,0.00,weatherlink.com 1.10,2013-04-16 19:22:00,
2013-04-16 15:37:00,82.0,74.0,30.05,NE,40,11.0,-999.0,76,-99.99,,,0.00,weatherlink.com 1.10,2013-04-16 19:37:00,
2013-04-16 15:52:00,81.3,73.0,30.05,East,89,12.0,-999.0,77,-99.99,,,0.00,weatherlink.com 1.10,2013-04-16 19:52:00,
2013-04-16 16:07:00,80.8,75.0,30.05,ENE,58,3.0,-999.0,81,-99.99,,,0.00,weatherlink.com 1.10,2013-04-16 20:07:00,
2013-04-16 16:22:00,80.9,74.0,30.05,NE,47,11.0,-999.0,79,-99.99,,,0.00,weatherlink.com 1.10,2013-04-16 20:22:00,
2013-04-16 16:37:00,80.7,73.0,30.05,East,84,7.0,-999.0,78,-99.99,,,0.00,weatherlink.com 1.10,2013-04-16 20:37:00,
2013-04-16 16:52:00,80.0,73.0,30.05,ENE,75,14.0,-999.0,80,-99.99,,,0.00,weatherlink.com 1.10,2013-04-16 20:52:00,
2013-04-16 17:07:00,79.6,73.0,30.05,ENE,61,4.0,-999.0,81,-99.99,,,0.00,weatherlink.com 1.10,2013-04-16 21:07:00,
2013-04-16 17:22:00,79.2,73.0,30.05,NE,52,4.0,-999.0,80,-99.99,,,0.00,weatherlink.com 1.10,2013-04-16 21:22:00,
2013-04-16 17:37:00,78.9,72.0,30.05,ENE,59,0.0,-999.0,80,-99.99,,,0.00,weatherlink.com 1.10,2013-04-16 21:37:00,
2013-04-16 17:52:00,78.4,72.0,30.05,NE,49,10.0,-999.0,80,-99.99,,,0.00,weatherlink.com 1.10,2013-04-16 21:52:00,
2013-04-16 18:07:00,78.0,72.0,30.05,NE,41,10.0,-999.0,81,-99.99,,,0.00,weatherlink.com 1.10,2013-04-16 22:07:00,
2013-04-16 18:22:00,77.5,71.0,30.06,ENE,78,0.0,-999.0,81,-99.99,,,0.00,weatherlink.com 1.10,2013-04-16 22:22:00,
2013-04-16 18:37:00,76.9,71.0,30.07,East,80,0.0,-999.0,82,-99.99,,,0.00,weatherlink.com 1.10,2013-04-16 22:37:00,
2013-04-16 18:52:00,76.3,71.0,30.06,East,82,2.0,-999.0,83,-99.99,,,0.00,weatherlink.com 1.10,2013-04-16 22:52:00,
2013-04-16 19:07:00,75.9,70.0,30.06,NE,45,4.0,-999.0,83,-99.99,,,0.00,weatherlink.com 1.10,2013-04-16 23:07:00,
2013-04-16 19:22:00,75.6,71.0,30.07,ENE,61,7.0,-999.0,84,-99.99,,,0.00,weatherlink.com 1.10,2013-04-16 23:22:00,
2013-04-16 19:37:00,75.3,71.0,30.07,NE,49,9.0,-999.0,85,-99.99,,,0.00,weatherlink.com 1.10,2013-04-16 23:37:00,
2013-04-16 19:52:00,74.9,71.0,30.07,ENE,69,0.0,-999.0,86,-99.99,,,0.00,weatherlink.com 1.10,2013-04-16 23:52:00,
2013-04-16 20:07:00,74.8,70.0,30.07,ENE,67,0.0,-999.0,86,-99.99,,,0.00,weatherlink.com 1.10,2013-04-17 00:07:00,
2013-04-16 20:22:00,74.7,70.0,30.07,ENE,66,6.0,-999.0,86,-99.99,,,0.00,weatherlink.com 1.10,2013-04-17 00:22:00,
2013-04-16 20:37:00,74.9,71.0,30.08,ENE,67,0.0,-999.0,86,-99.99,,,0.00,weatherlink.com 1.10,2013-04-17 00:37:00,
2013-04-16 20:52:00,74.8,70.0,30.08,ENE,64,0.0,-999.0,86,-99.99,,,0.00,weatherlink.com 1.10,2013-04-17 00:52:00,
2013-04-16 21:07:00,75.0,71.0,30.08,ENE,57,4.0,-999.0,86,-99.99,,,0.00,weatherlink.com 1.10,2013-04-17 01:07:00,
2013-04-16 21:22:00,74.7,70.0,30.08,ENE,74,2.0,-999.0,86,-99.99,,,0.00,weatherlink.com 1.10,2013-04-17 01:22:00,
2013-04-16 21:37:00,74.7,70.0,30.09,ENE,60,3.0,-999.0,86,-99.99,,,0.00,weatherlink.com 1.10,2013-04-17 01:37:00,
2013-04-16 21:52:00,74.6,70.0,30.09,NE,52,0.0,-999.0,85,-99.99,,,0.00,weatherlink.com 1.10,2013-04-17 01:52:00,
2013-04-16 22:07:00,74.6,70.0,30.09,NE,51,3.0,-999.0,85,-99.99,,,0.00,weatherlink.com 1.10,2013-04-17 02:07:00,
2013-04-16 22:22:00,74.4,70.0,30.09,East,84,0.0,-999.0,85,-99.99,,,0.00,weatherlink.com 1.10,2013-04-17 02:22:00,
2013-04-16 22:37:00,74.4,70.0,30.08,East,84,2.0,-999.0,85,-99.99,,,0.00,weatherlink.com 1.10,2013-04-17 02:37:00,
2013-04-16 22:52:00,74.2,70.0,30.09,East,89,1.0,-999.0,85,-99.99,,,0.00,weatherlink.com 1.10,2013-04-17 02:52:00,
2013-04-16 23:07:00,74.2,70.0,30.08,ENE,69,0.0,-999.0,85,-99.99,,,0.00,weatherlink.com 1.10,2013-04-17 03:07:00,
2013-04-16 23:22:00,74.3,70.0,30.08,ENE,77,2.0,-999.0,85,-99.99,,,0.00,weatherlink.com 1.10,2013-04-17 03:22:00,
2013-04-16 23:37:00,74.2,70.0,30.08,East,79,4.0,-999.0,85,-99.99,,,0.00,weatherlink.com 1.10,2013-04-17 03:37:00,
2013-04-16 23:52:00,74.0,69.0,30.08,East,84,0.0,-999.0,85,-99.99,,,0.00,weatherlink.com 1.10,2013-04-17 03:52:00,